カタリナ彗星

C/2007 M2 ( Catalina )

English version
Home page
Updated on October 3, 2010

---------------------------------------------------------------------

・ プロフィール

発見日 2007年6月20日
発見光度 20.4等
発見者 Catalina Sky Survey

・ 写真集

・ 軌道要素

The following orbital elements are taken from MPC 68392:

Epoch 2008 Nov. 30.0 TT = JDT 2454800.5
T 2008 Dec. 8.5813 TT                                   MPC
q   3.541007             (2000.0)            P               Q
z  +0.000241       Peri.  220.6712      -0.7624655      +0.6453356
 +/-0.000001       Node   357.2849      +0.1950418      +0.1603009
e   0.999146       Incl.   80.9514      -0.6169320      -0.7468906
From 398 observations 2007 June 20-2010 Jan. 4, mean residual 0".6.

・ 星図

・ 光度変化

        m1 = 7.5 + 5 logΔ + 10.0 log r

---------------------------------------------------------------------

軌道要素はMPCのEphemerides and Orbital Elementsに掲載されたものです。
星図は StellaNavigator Ver.2.0 for Windows (アストロアーツ 編著 / アスキー出版局刊) で作成したものです。
光度グラフはComet for Windowsで作成したものです。

---------------------------------------------------------------------

Copyright(C) Seiichi Yoshida (comet@aerith.net). All rights reserved.